Location: *
(35.2348°S, 91.3916°E)
Time: 05:32:45
(UTC+00:00)

Landsat 5 - Pass Details

Date: 23 October 2019
Orbit: 528 x 655 km, 98.1° (Epoch: 11 November)

Event Time Altitude Azimuth Distance (km) Brightness Sun altitude
Rises 21:08:42 0° 163° (SSE) 2,830 7.7 -21.8°
Reaches altitude 10° 21:10:53 10° 158° (SSE) 1,942 6.9 -21.5°
Maximum altitude 21:15:02 55° 79° (E) 739 4.1 -20.7°
Enters shadow 21:17:44 21° 8° (N) 1,394 5.1 -20.3°
